Regional Weather Roundup
Issued by NWS

Home | Current Version | Previous Version | Graphics & Text | Print | Product List | Glossary On
Versions: 1 2 3 4 5 6 7 8 9 10 11 12 13 14 15 16 17 18 19 20 21 22 23 24 25 26 27 28 29 30 31 32 33 34 35 36 37 38
000
ASUS45 KBOU 262107
RWRCO

WEATHER ROUNDUP FOR COLORADO
NATIONAL WEATHER SERVICE DENVER/BOULDER CO
200 PM MST FRI DEC 26 2014

NOTE: "FAIR" INDICATES FEW OR NO CLOUDS BELOW 12000 FEET WITH NO
SIGNIFICANT WEATHER AND/OR OBSTRUCTIONS TO VISIBILITY.

COZ001>005-013-030-031-262200-
...NORTHWEST COLORADO...

CITY           SKY/WX    TMP DP  RH WIND       PRES   REMARKS
CRAIG          LGT SNOW  18  13  80 SW12      29.84R WCI   5
HAYDEN         PTSUNNY   16   9  73 NW10      29.81R WCI   3
MEEKER         CLOUDY    19  12  74 SW10      29.83S WCI   7
MOUNT WERNER   NOT AVBL
STEAMBOAT SPGS CLOUDY    17  11  78 S7        29.78R WCI   7
WALDEN         CLOUDY    12   5  73 NW9       29.72S WCI   0
$$

COZ006>008-011-262200-
...WEST CENTRAL VALLEYS...

CITY           SKY/WX    TMP DP  RH WIND       PRES   REMARKS
GRAND JUNCTION CLOUDY    27  21  78 W8        29.86R WCI  19
MONTROSE       CLOUDY    28  20  71 VRB3      29.81R
EAGLE          PTSUNNY   28  19  69 W8        29.75R WCI  20
RIFLE          CLOUDY    27  13  55 W14       29.82R WCI  16
DELTA          PTSUNNY   37  19  49 N7        29.79S
NUCLA          CLOUDY    32  19  59 NW13      29.83S WCI  22
$$

COZ017>023-064>068-262200-
...SOUTHWEST COLORADO...

CITY           SKY/WX    TMP DP  RH WIND       PRES   REMARKS
DURANGO        MOSUNNY   26  17  68 SW18G26   29.74R WCI  13
CORTEZ         LGT SNOW  28  20  71 W13       29.81R WCI  17
PAGOSA SPRINGS LGT SNOW  22  21  96 S12       29.71R WCI  11
TELLURIDE      PTSUNNY   19  12  74 W17       29.70R WCI   3
WOLF CREEK PAS CLOUDY     5   3  92 MISG      29.59R
$$

COZ009-010-012-014-032>034-037-058>063-262200-
...CENTRAL COLORADO...

CITY           SKY/WX    TMP DP  RH WIND       PRES   REMARKS
ASPEN          CLOUDY    20  13  74 N9        29.69R WCI   9
BUENA VISTA    CLOUDY    16  11  79 SE9       29.74S WCI   5
COPPER MTN     SNOW      12   3  67 W12       29.58R VSB 1/4 WCI  -2
BERTHOUD PASS  LGT SNOW   0  -6  78 MISG      29.57S
COTTONWOOD PAS CLOUDY    14   9  79 SE6       29.67S WCI   5
GUNNISON       PTSUNNY   16   3  57 CALM      29.74R
KREMMLING      CLOUDY    19  12  73 SE5       29.74S WCI  13
LEADVILLE      CLOUDY     8   1  73 S9        29.63S WCI  -5
MONARCH PASS   LGT SNOW   0  -4  85 MISG      29.68R VSB 3/4
SALIDA         CLOUDY    17  12  82 SE7       29.85S WCI   7
SUNLIGHT       SNOW     N/A N/A N/A W3        29.66R VSB<1/4
WILKERSON PASS CLOUDY   N/A N/A N/A S3        29.64S
$$

COZ069>075-262200-
...SAN LUIS VALLEY/SANGRE DE CRISTO MOUNTAINS...

CITY           SKY/WX    TMP DP  RH WIND       PRES   REMARKS
ALAMOSA        CLOUDY    27  12  53 CALM      29.66F
LA VETA PASS   NOT AVBL
SAGUACHE       LGT SNOW  21  18  86 SE5       29.69R VSB 3/4 WCI  15
$$

COZ035-036-038>040-262200-
...NORTHERN COLORADO FRONT RANGE...

CITY           SKY/WX    TMP DP  RH WIND       PRES   REMARKS
DENVER INTL AP CLOUDY    18  13  80 N7        29.90S WCI   9
DMNS CITY PARK   N/A     20  13  74 N6        29.91S WCI  13
AURORA         FLURRIES  18  13  82 N6        29.90S WCI  10
FRONT RANGE AP CLOUDY    21  18  86 NW3       29.91R
ERIE MUNI ARPT   N/A     20  15  80 NE5       29.93S HAZE    WCI  14
BOULDER MUN AP LGT SNOW  21  18  86 NE5       29.92S WCI  15
CENTENNIAL     LGT SNOW  17  12  80 NE6       29.87S VSB 1   WCI   9
BROOMFIELD     PTSUNNY   19  14  79 N5        29.90F WCI  13
FORT COLLINS   CLOUDY    19  12  73 E3        29.95S VSB 1
LONGMONT       LGT SNOW  24  16  70 NE3       29.95S
$$

COZ041-046-047-076>085-087-088-262200-
...PIKES PEAK/PALMER DIVIDE AND SOUTHERN FOOTHILLS...

CITY           SKY/WX    TMP DP  RH WIND       PRES   REMARKS
COLO. SPRINGS  PTSUNNY   22   8  55 NE9       29.84S WCI  12
A. F. ACADEMY  MOSUNNY   18   7  62 N8        29.82R WCI   8
ELLICOTT       NOT AVBL
FALCON         CLOUDY    19   8  62 N13       29.81S WCI   5
FORT CARSON    CLOUDY    23   9  55 CALM      29.85S
LIMON          LGT SNOW  17  12  80 N13       29.90R WCI   4
MONUMENT HILL  LGT SNOW  14  10  85 N9        29.81R WCI   2
TRINIDAD       LGT SNOW  21  15  78 N9        29.87R WCI  11
$$

COZ042>045-048>051-090-091-262200-
...NORTHEAST COLORADO...

CITY           SKY/WX    TMP DP  RH WIND       PRES   REMARKS
GREELEY ARPT   PTSUNNY   18  10  73 NE6       29.95S WCI   9
AKRON          CLOUDY    17  13  84 N15       29.93R FOG     WCI   2
BURLINGTON     LGT SNOW  21  16  81 N13       29.94R WCI   9
WRAY           LGT SNOW  23  19  84 N13       29.97S WCI  12
STERLING       LGT SNOW  23  19  86 N7        29.97S WCI  15
HOLYOKE        LGT SNOW  25  19  80 N15       29.97S WCI  12
FORT MORGAN    LGT SNOW  19  14  80 N8        29.96S WCI   9
$$

COZ086-089-092>099-262200-
...SOUTHEAST COLORADO...

CITY           SKY/WX    TMP DP  RH WIND       PRES   REMARKS
PUEBLO         FLURRIES  25  18  74 SE5       29.90F WCI  19
LA JUNTA       LGT SNOW  25  18  74 N12       29.94R WCI  14
LAMAR          CLOUDY    26  20  77 NE9       29.93S WCI  17
SPRINGFIELD      N/A     25  19  78 N15       29.88S WCI  13
$$


USA.gov is the U.S. government's official web portal to all federal, state and local government web resources and services.